Location: Bonac
(42.8765°N, 0.9753°E)
Time: 20:08:29
(UTC+00:00)

YAOGAN 3 - Pass Details

Date: 12 January 2026
Orbit: 596 x 598 km, 97.8° (Epoch: 13 February)

Event Time Altitude Azimuth Distance (km) Brightness Sun altitude
Rises 18:44:20 0° 164° (SSE) 2,831 7.9 -21.6°
Reaches altitude 10° 18:46:30 10° 163° (SSE) 1,933 7.0 -22.0°
Maximum altitude 18:50:42 82° 76° (ENE) 610 4.3 -22.7°
Drops below altitude 10° 18:54:56 10° 349° (N) 1,948 7.1 -23.5°
Sets 18:57:06 0° 349° (NNW) 2,855 8.0 -23.9°
